SCP
0 0 0 0 0 0 0 -0 -0 -0 0 0 0 0 1 2 1 2 2 1 0 2
0 0 0 0 0 0 0 -0 -0 -0 -0 0 0 0 1 1 1 1 0 0 0 0
0 0 0 0 0 0 0 -0 -0 -0 -0 -0 -0 -0 0 0 0 0 0 0 0 0
0 0 0 0 0 0 0 0 -0 -0 -0 -0 -0 -0 -0 -0 0 0 0 0 0 0
0 0 0 0 0 0 0 0 -0 -0 -0 -0 -0 0 -0 -0 -0 0 0 0 0 0
0 0 0 0 0 0 0 0 0 -0 -0 -0 -0 0 0 0 0 0 1 0 0 0
0 0 0 0 0 0 0 0 0 0 -0 -0 -0 0 0 0 0 0 0 0 0 0
0 0 0 0 0 0 0 0 0 -0 -0 -0 -0 -0 -0 0 0 0 0 0 0 0
0 0 0 0 0 0 0 0 0 0 0 0 -0 -0 -0 -0 0 0 0 0 0 0
0 0 0 0 0 0 0 0 0 0 0 0 -0 -0 0 -0 0 0 0 -0 -0 -0
0 0 0 0 0 0 0 0 0 0 0 0 -0 -0 0 0 0 0 -0 -0 -0 -0
0 0 0 0 0 0 0 0 0 0 0 0 0 -0 -0 0 0 0 0 0 0 0
0 0 0 0 0 0 0 0 0 0 0 0 -0 -0 -0 -0 -0 -0 -0 0 0 -0
0 0 0 0 0 0 0 0 0 0 0 0 0 0 -0 0 -0 -0 -0 -0 -0 0
Wind_Speed_500mb
43 46 57 56 53 59 68 73 68 69 66 75 76 71 74 74 82 98 102 95 84 71
47 51 53 56 59 65 68 74 73 66 64 61 67 73 78 80 79 80 90 91 92 44
49 52 56 60 63 60 66 71 69 72 72 70 69 71 75 83 85 82 91 88 81 88
54 56 58 62 63 66 59 63 70 75 79 78 79 80 79 79 78 85 92 97 95 96
44 50 55 62 60 58 62 61 65 68 69 75 79 82 82 78 72 78 85 93 93 97
38 38 43 55 63 66 70 67 63 71 69 75 78 78 81 87 81 85 80 82 88 102
55 52 50 53 51 58 67 67 60 66 67 74 83 84 88 94 79 83 73 79 97 92
97 91 87 74 59 50 51 61 59 59 64 70 76 80 79 83 82 93 65 77 74 71
120 118 114 111 104 86 71 55 54 57 59 66 67 67 69 74 62 59 45 60 68 72
92 92 89 87 84 83 84 64 54 51 52 58 50 53 53 75 29 32 42 50 51 72
80 77 70 68 67 64 65 79 76 52 52 50 48 49 49 26 38 29 43 45 42 52
51 70 74 64 48 48 58 63 59 56 52 45 41 47 25 21 7 48 39 26 27 40
66 56 69 60 59 60 60 54 55 73 51 40 38 40 30 40 46 51 46 32 37 49
68 63 60 51 46 49 47 54 53 45 54 43 31 33 37 48 65 55 52 51 53 45
Wind_Direction_500mb
273 276 278 280 280 287 297 304 312 316 305 296 297 294 292 289 277 272 271 272 263 233
270 266 264 271 278 283 292 296 305 315 317 302 296 294 288 284 282 276 267 260 259 253
269 267 269 275 282 287 297 302 306 312 314 322 311 301 292 287 281 277 271 263 266 259
268 273 275 278 283 289 295 301 307 309 310 311 315 318 304 298 288 276 273 269 265 266
272 275 277 283 283 285 291 298 304 312 310 307 310 314 309 294 301 277 268 268 265 260
267 271 279 280 285 286 289 292 298 307 309 312 309 308 313 299 290 288 264 261 261 257
288 287 285 275 278 281 284 286 294 297 304 310 310 309 304 301 290 293 267 261 256 251
291 287 285 280 277 279 289 289 293 294 300 305 311 314 310 302 292 283 262 251 242 216
293 287 284 282 280 275 277 292 286 290 295 300 311 313 315 309 286 246 239 255 238 230
286 287 287 284 282 275 273 276 281 281 290 297 307 294 309 332 259 244 208 234 219 204
287 285 282 284 280 269 265 260 269 273 279 289 301 305 295 333 351 214 198 198 196 199
280 289 287 285 280 273 261 258 253 261 269 278 292 290 268 262 113 132 160 176 170 148
294 282 288 284 276 275 269 272 269 241 257 268 283 275 273 211 210 202 208 176 170 163
292 290 286 284 278 276 270 260 261 249 241 254 255 272 272 213 196 209 196 166 162 165
Wind_Speed_850mb
43 46 57 56 53 59 68 73 68 69 66 75 76 71 74 74 82 98 102 95 84 71
47 51 53 56 59 65 68 74 73 66 64 61 67 73 78 80 79 80 90 91 92 44
49 52 56 60 63 60 66 71 69 72 72 70 69 71 75 83 85 82 91 88 81 88
54 56 58 62 63 66 59 63 70 75 79 78 79 80 79 79 78 85 92 97 95 96
44 50 55 62 60 58 62 61 65 68 69 75 79 82 82 78 72 78 85 93 93 97
38 38 43 55 63 66 70 67 63 71 69 75 78 78 81 87 81 85 80 82 88 102
55 52 50 53 51 58 67 67 60 66 67 74 83 84 88 94 79 83 73 79 97 92
97 91 87 74 59 50 51 61 59 59 64 70 76 80 79 83 82 93 65 77 74 71
120 118 114 111 104 86 71 55 54 57 59 66 67 67 69 74 62 59 45 60 68 72
92 92 89 87 84 83 84 64 54 51 52 58 50 53 53 75 29 32 42 50 51 72
80 77 70 68 67 64 65 79 76 52 52 50 48 49 49 26 38 29 43 45 42 52
51 70 74 64 48 48 58 63 59 56 52 45 41 47 25 21 7 48 39 26 27 40
66 56 69 60 59 60 60 54 55 73 51 40 38 40 30 40 46 51 46 32 37 49
68 63 60 51 46 49 47 54 53 45 54 43 31 33 37 48 65 55 52 51 53 45
Wind_Direction_850mb
273 276 278 280 280 287 297 304 312 316 305 296 297 294 292 289 277 272 271 272 263 233
270 266 264 271 278 283 292 296 305 315 317 302 296 294 288 284 282 276 267 260 259 253
269 267 269 275 282 287 297 302 306 312 314 322 311 301 292 287 281 277 271 263 266 259
268 273 275 278 283 289 295 301 307 309 310 311 315 318 304 298 288 276 273 269 265 266
272 275 277 283 283 285 291 298 304 312 310 307 310 314 309 294 301 277 268 268 265 260
267 271 279 280 285 286 289 292 298 307 309 312 309 308 313 299 290 288 264 261 261 257
288 287 285 275 278 281 284 286 294 297 304 310 310 309 304 301 290 293 267 261 256 251
291 287 285 280 277 279 289 289 293 294 300 305 311 314 310 302 292 283 262 251 242 216
293 287 284 282 280 275 277 292 286 290 295 300 311 313 315 309 286 246 239 255 238 230
286 287 287 284 282 275 273 276 281 281 290 297 307 294 309 332 259 244 208 234 219 204
287 285 282 284 280 269 265 260 269 273 279 289 301 305 295 333 351 214 198 198 196 199
280 289 287 285 280 273 261 258 253 261 269 278 292 290 268 262 113 132 160 176 170 148
294 282 288 284 276 275 269 272 269 241 257 268 283 275 273 211 210 202 208 176 170 163
292 290 286 284 278 276 270 260 261 249 241 254 255 272 272 213 196 209 196 166 162 165